Wind_Speed
7 7 5 8 13 15 16 16 13 13 21 28 27 23 23 28 33 34 34 35 37 36 38 38 39 38 37 38 37 36 38 38 38 38 36 34 33 32 31 30 29 28 27 27
5 6 10 12 14 12 12 12 13 15 21 28 29 25 24 29 30 31 32 34 35 37 38 37 37 38 37 37 36 36 37 37 37 38 36 36 33 32 31 30 29 28 27 27
3 9 11 9 6 4 5 9 13 17 20 21 19 19 20 25 26 26 25 27 31 34 36 35 36 36 36 36 36 35 36 37 38 37 37 36 34 32 31 30 29 28 28 27
5 7 9 5 5 6 10 14 16 17 19 17 15 18 19 24 28 28 24 25 28 30 29 30 33 34 34 34 36 36 37 38 38 37 37 35 34 33 32 31 29 28 28 28
5 6 8 9 8 10 12 15 14 13 14 14 14 17 21 26 27 27 24 26 28 25 26 29 31 32 32 35 35 36 37 38 38 38 38 37 35 34 33 32 30 30 29 29
4 8 8 8 9 10 9 9 8 11 14 18 20 20 21 24 25 27 28 30 31 30 28 29 31 32 33 34 35 35 37 38 39 39 40 38 37 35 35 34 33 32 32 31
2 5 7 9 8 11 12 10 11 17 19 20 16 12 18 21 23 26 29 31 31 31 30 31 31 32 33 34 35 37 39 40 41 41 41 40 39 38 37 36 36 35 34 34
6 7 5 9 12 11 10 9 11 16 18 20 22 16 19 23 24 25 26 28 31 33 34 34 35 36 37 38 39 41 42 43 44 44 44 44 44 43 42 41 40 38 37 37
5 7 8 12 12 10 10 9 11 14 14 13 16 24 27 24 24 24 25 29 33 36 37 38 39 40 42 43 44 45 46 47 48 48 49 49 48 48 47 46 44 43 42 41
7 8 7 10 10 11 12 13 13 15 16 15 15 27 31 33 29 27 30 34 36 38 40 41 42 43 44 46 48 48 50 51 52 52 53 53 53 53 53 52 51 49 47 45
8 8 6 8 11 10 12 13 14 18 19 20 21 27 32 33 33 33 37 39 41 43 45 47 48 47 48 49 51 52 53 54 55 56 56 57 57 57 57 56 55 53 52 50
9 9 8 8 11 13 13 15 17 19 20 21 23 29 32 34 35 37 42 44 46 47 49 51 52 52 52 53 54 55 56 57 58 59 59 60 60 61 60 60 59 58 57 55
11 11 9 10 13 16 18 19 21 23 25 25 25 31 34 36 39 41 44 46 48 51 52 53 54 55 56 56 57 58 59 60 61 62 63 63 64 65 65 65 64 63 62 60
11 11 11 11 12 14 17 19 21 24 27 28 30 34 38 40 42 45 48 50 52 54 55 56 57 58 59 60 61 61 62 63 65 65 66 67 68 69 70 70 69 68 67 66
12 13 13 13 13 13 16 19 22 25 28 31 34 38 41 43 45 48 51 53 55 57 58 59 60 62 63 63 64 65 66 67 68 69 70 71 72 72 71 71 71 71 70 69
14 14 14 14 14 14 18 21 23 28 32 35 37 40 43 45 48 50 53 56 59 60 61 62 64 65 66 67 68 68 68 69 68 68 68 68 67 67 67 68 68 69 69 69
16 17 17 16 15 16 20 24 27 31 34 38 40 43 46 48 50 52 55 59 61 62 64 65 66 67 68 68 68 68 67 65 62 60 58 57 56 56 57 58 60 61 63 65
16 17 18 19 19 19 23 25 29 33 36 39 42 45 47 50 52 54 58 62 63 65 66 67 67 67 66 65 62 60 57 54 51 49 47 46 46 46 47 47 48 50 52 55
19 19 21 21 21 25 28 29 32 36 40 42 44 48 50 53 56 57 60 63 64 65 66 66 65 63 60 57 55 52 49 46 44 41 40 39 39 39 39 39 39 39 41 43
23 23 24 25 27 29 31 34 37 41 44 47 50 53 55 58 60 61 62 63 64 64 64 63 60 57 54 51 49 47 44 42 40 40 39 39 39 38 36 35 35 35 34 35
21 23 25 27 29 34 35 38 41 43 46 48 51 54 57 59 62 63 63 63 63 62 60 57 54 52 50 48 46 44 42 40 40 40 40 38 37 37 36 34 32 32 31 31
23 25 28 29 31 35 38 41 43 46 48 51 54 57 59 62 63 63 63 62 61 58 55 53 51 49 48 46 44 42 41 40 40 40 39 38 37 36 34 33 31 30 29 28
25 27 30 32 34 37 41 44 47 49 52 54 57 59 62 64 64 63 62 60 57 54 52 50 49 49 47 45 44 43 42 41 40 40 39 38 36 34 33 32 30 30 29 27
29 29 32 34 37 40 43 46 49 51 54 57 59 61 63 64 63 62 60 57 54 51 50 50 50 48 46 44 43 43 42 41 41 40 39 38 36 34 32 31 30 29 28 27
29 32 34 37 40 42 44 48 51 53 56 58 60 62 64 64 62 60 58 54 51 50 50 50 50 48 45 43 42 41 41 40 40 39 38 36 34 33 32 30 29 28 27 26
31 34 37 39 42 44 47 50 53 55 57 59 62 63 63 62 60 58 55 52 51 50 50 50 48 46 44 42 41 40 40 40 39 37 36 34 32 31 30 28 27 26 25 24
Wind_Direction
298 297 290 261 256 252 243 227 223 235 242 247 253 259 257 253 257 264 268 271 273 272 277 280 281 282 283 285 285 287 288 289 291 294 295 296 296 296 295 294 293 291 289 288
349 300 274 275 266 259 255 246 236 241 253 258 261 265 263 262 266 267 269 272 274 276 277 279 280 282 280 283 283 283 284 287 289 292 293 294 294 295 294 294 292 290 288 288
276 275 287 304 313 307 272 254 248 245 252 265 278 275 268 270 271 275 274 273 277 276 275 276 278 277 277 280 283 282 284 286 288 290 292 292 292 294 294 292 290 289 289 289
236 279 302 301 281 269 263 244 246 255 261 265 266 270 273 271 271 273 274 276 281 276 274 277 278 276 275 279 281 281 283 286 288 288 290 289 290 292 292 291 289 288 288 287
276 305 306 293 274 274 273 271 271 275 274 267 257 261 263 264 266 275 276 286 288 285 286 283 280 278 280 282 281 283 284 286 287 288 289 289 290 291 291 290 290 289 288 286
314 319 313 308 300 296 295 293 288 289 279 269 255 243 251 262 275 283 289 294 294 296 295 290 287 283 282 282 283 284 285 286 286 287 288 289 289 289 289 288 288 287 286 285
303 277 282 305 314 295 292 293 299 303 305 297 293 259 252 267 280 287 292 296 299 298 294 293 290 288 286 285 285 286 286 287 287 288 288 287 286 286 286 286 286 284 282 282
316 306 309 305 306 302 302 303 305 306 313 322 321 303 279 273 272 280 289 297 301 301 299 296 293 290 289 289 287 287 286 286 286 286 286 286 285 285 284 283 282 281 279 279
297 309 305 306 319 323 322 311 298 299 305 307 305 295 289 283 276 281 289 298 302 301 299 297 295 293 292 290 288 286 285 284 284 284 284 284 284 283 282 282 280 279 277 276
292 290 287 310 326 322 318 320 316 311 307 300 297 296 297 300 302 298 299 300 300 299 297 295 294 292 290 288 287 286 285 283 282 281 281 281 281 281 280 279 279 278 277 276
302 302 303 304 300 297 296 305 304 302 303 299 297 294 293 299 300 300 300 300 299 298 296 295 294 292 290 288 287 285 284 282 281 280 279 279 279 279 278 277 277 277 276 275
307 312 312 302 297 292 302 315 317 312 309 305 303 295 296 297 296 296 297 298 297 297 296 295 294 293 291 289 288 286 284 283 281 280 279 278 277 277 277 276 276 275 275 273
318 317 311 307 310 319 326 324 316 309 307 306 302 295 294 293 295 296 296 296 296 296 296 296 295 294 293 291 289 287 285 284 282 280 279 278 277 276 276 275 274 274 273 272
317 318 314 310 305 305 306 303 298 299 301 301 298 294 296 299 299 299 299 300 300 299 299 298 297 296 294 292 290 289 287 285 283 281 280 278 277 276 275 274 274 272 271 271
324 323 319 315 311 304 295 292 296 299 301 302 302 301 302 304 303 303 303 303 302 301 301 300 299 297 296 294 292 291 289 287 285 283 281 279 277 276 275 273 272 272 270 269
325 324 320 317 314 306 298 300 305 304 304 305 305 305 306 306 306 306 306 304 303 304 303 302 300 299 298 296 295 293 291 290 288 286 284 282 279 277 275 273 272 271 269 268
330 330 328 325 320 311 301 311 309 307 308 309 311 310 309 308 308 309 308 306 306 306 305 304 303 302 301 300 298 297 295 293 291 289 287 285 283 281 279 277 275 272 271 269
337 334 331 331 328 314 315 316 313 312 312 312 313 311 311 312 312 313 311 309 309 309 308 307 306 304 303 302 301 300 299 298 296 293 291 289 288 286 284 282 279 275 271 269
341 340 337 337 333 320 324 323 320 318 316 317 317 316 316 316 315 315 313 312 312 311 309 308 307 306 305 304 303 302 301 299 298 296 294 293 293 292 289 286 284 280 275 271
339 338 339 337 331 323 328 325 325 324 321 323 322 320 319 318 317 318 316 315 314 313 311 310 309 308 308 307 304 303 301 299 298 296 296 295 294 292 291 288 286 283 279 276
331 334 335 334 330 325 330 327 326 324 323 322 321 320 320 320 320 320 319 318 317 315 314 313 312 311 310 308 306 304 302 300 298 297 296 294 293 291 290 288 286 283 279 276
333 334 333 333 330 327 327 325 326 325 324 324 324 324 323 323 323 322 322 320 319 318 317 315 314 313 312 309 306 304 302 300 298 297 295 294 292 289 288 286 284 281 279 276
333 334 331 331 329 327 326 327 328 327 327 327 327 326 326 327 326 325 324 322 321 320 318 317 316 315 313 310 306 303 301 299 298 297 295 292 290 288 286 284 282 278 276 274
329 332 330 329 329 329 329 329 328 329 329 329 329 329 329 329 328 327 326 325 323 322 321 320 318 316 314 311 307 303 301 300 298 296 295 292 288 285 282 281 280 277 272 269
326 328 330 330 330 330 329 329 329 330 330 330 331 331 331 331 330 329 328 327 326 324 323 322 320 318 316 313 310 306 304 302 300 298 295 292 289 285 280 278 277 273 270 265
328 330 330 330 330 330 331 331 331 332 332 332 333 333 334 333 332 331 330 329 327 326 325 324 322 320 318 315 313 309 306 304 301 298 295 292 289 286 280 275 272 270 267 261
Height
5874 5876 5876 5877 5877 5877 5878 5880 5882 5885 5881 5880 5879 5879 5880 5878 5877 5877 5875 5873 5870 5867 5865 5863 5861 5860 5858 5858 5857 5856 5856 5855 5853 5852 5850 5849 5847 5846 5844 5843 5841 5839 5838 5836
5874 5874 5873 5873 5873 5873 5874 5876 5878 5879 5876 5874 5874 5874 5874 5871 5870 5869 5869 5867 5863 5861 5859 5856 5854 5853 5852 5851 5849 5847 5847 5847 5845 5845 5843 5841 5840 5838 5837 5836 5834 5832 5831 5829
5874 5873 5871 5871 5871 5872 5873 5874 5873 5872 5870 5869 5870 5869 5868 5865 5863 5862 5860 5859 5857 5854 5851 5849 5849 5846 5844 5845 5843 5841 5839 5838 5838 5837 5836 5834 5833 5831 5830 5828 5827 5825 5824 5822
5871 5871 5870 5870 5870 5870 5869 5867 5867 5867 5866 5866 5868 5866 5864 5860 5857 5854 5851 5851 5849 5845 5842 5843 5842 5838 5836 5837 5836 5835 5833 5831 5830 5829 5828 5827 5825 5824 5822 5820 5819 5818 5817 5815
5869 5869 5869 5868 5867 5866 5865 5864 5863 5863 5862 5861 5862 5862 5860 5853 5851 5849 5846 5845 5842 5837 5836 5837 5835 5831 5829 5831 5829 5828 5826 5825 5823 5821 5820 5819 5817 5816 5814 5813 5811 5810 5809 5808
5868 5868 5867 5867 5865 5864 5863 5862 5861 5859 5857 5856 5854 5854 5851 5848 5847 5845 5843 5841 5839 5835 5833 5832 5830 5827 5825 5824 5822 5820 5819 5817 5815 5813 5812 5810 5808 5807 5806 5804 5803 5802 5801 5800
5866 5866 5866 5865 5864 5863 5861 5860 5859 5856 5852 5848 5846 5847 5847 5846 5844 5842 5839 5837 5835 5832 5830 5827 5824 5820 5817 5816 5815 5812 5811 5809 5807 5804 5802 5800 5799 5798 5796 5795 5794 5793 5792 5790
5865 5864 5863 5864 5863 5861 5859 5859 5859 5855 5852 5850 5845 5844 5843 5841 5839 5837 5835 5832 5830 5827 5824 5821 5818 5815 5812 5810 5807 5804 5802 5799 5797 5794 5792 5790 5788 5787 5786 5784 5784 5783 5782 5781
5865 5864 5864 5863 5861 5860 5858 5857 5856 5854 5852 5851 5850 5842 5837 5832 5831 5832 5831 5829 5826 5822 5818 5814 5811 5807 5804 5801 5798 5795 5792 5789 5786 5783 5781 5778 5777 5775 5774 5772 5772 5771 5771 5770
5864 5863 5863 5861 5860 5860 5858 5856 5854 5852 5849 5847 5847 5840 5834 5830 5825 5825 5824 5822 5819 5815 5810 5806 5802 5798 5795 5791 5787 5784 5780 5777 5774 5771 5768 5765 5764 5762 5761 5759 5758 5757 5757 5757
5863 5862 5861 5860 5858 5857 5855 5854 5852 5850 5847 5845 5842 5839 5832 5828 5824 5819 5816 5814 5810 5806 5800 5795 5791 5787 5783 5779 5774 5770 5767 5763 5760 5757 5754 5751 5749 5747 5745 5744 5743 5743 5742 5743
5861 5860 5859 5858 5855 5853 5851 5850 5849 5847 5844 5841 5838 5836 5828 5824 5820 5815 5810 5805 5801 5796 5790 5785 5779 5775 5770 5765 5761 5756 5752 5748 5744 5741 5738 5735 5732 5730 5729 5728 5727 5726 5726 5727
5859 5859 5857 5856 5855 5851 5849 5848 5846 5843 5840 5837 5834 5830 5822 5818 5814 5809 5803 5797 5791 5785 5779 5773 5767 5761 5756 5750 5745 5740 5736 5731 5727 5723 5720 5717 5714 5712 5710 5709 5709 5708 5708 5709
5857 5856 5855 5854 5851 5850 5849 5847 5843 5839 5836 5832 5828 5821 5815 5811 5806 5799 5793 5786 5780 5773 5766 5760 5753 5747 5740 5734 5729 5723 5718 5713 5708 5704 5700 5697 5694 5691 5690 5688 5688 5688 5688 5689
5855 5854 5852 5850 5848 5847 5845 5842 5839 5835 5831 5827 5821 5814 5808 5803 5797 5790 5783 5775 5767 5760 5753 5745 5738 5730 5723 5716 5710 5703 5697 5691 5686 5681 5677 5674 5671 5669 5667 5666 5665 5665 5666 5667
5853 5851 5849 5847 5845 5843 5840 5837 5834 5830 5825 5819 5814 5808 5800 5793 5786 5779 5771 5762 5753 5746 5738 5729 5720 5712 5704 5696 5689 5682 5675 5668 5662 5657 5653 5649 5646 5644 5643 5642 5642 5642 5643 5644
5850 5848 5846 5843 5841 5838 5835 5833 5828 5823 5817 5811 5805 5800 5792 5784 5777 5769 5759 5749 5740 5731 5721 5711 5702 5692 5683 5675 5667 5659 5652 5646 5640 5635 5630 5626 5623 5621 5620 5619 5619 5619 5620 5621
5848 5845 5842 5840 5837 5833 5833 5827 5822 5817 5810 5804 5798 5790 5782 5774 5765 5757 5745 5734 5724 5714 5703 5693 5683 5673 5664 5655 5646 5639 5632 5626 5621 5616 5612 5609 5606 5603 5601 5600 5599 5599 5599 5600
5846 5842 5839 5836 5833 5829 5824 5820 5815 5809 5802 5796 5788 5779 5771 5762 5753 5745 5733 5720 5709 5698 5686 5675 5665 5655 5646 5637 5629 5622 5617 5611 5606 5602 5598 5595 5592 5589 5587 5585 5583 5582 5581 5581
5843 5839 5837 5832 5828 5824 5820 5813 5807 5802 5793 5785 5776 5767 5758 5749 5739 5731 5718 5705 5693 5681 5669 5658 5648 5639 5630 5622 5614 5608 5603 5598 5594 5590 5586 5583 5579 5577 5574 5572 5571 5569 5568 5568
5842 5837 5834 5830 5825 5817 5814 5807 5802 5796 5788 5778 5769 5759 5748 5737 5726 5714 5702 5689 5677 5665 5653 5643 5633 5625 5617 5609 5602 5596 5591 5586 5581 5577 5573 5570 5567 5565 5563 5561 5560 5558 5557 5557
5838 5834 5830 5825 5820 5816 5808 5801 5795 5788 5778 5768 5758 5747 5736 5724 5712 5699 5686 5674 5662 5650 5640 5630 5621 5613 5605 5597 5590 5584 5578 5573 5569 5564 5561 5558 5555 5553 5551 5550 5549 5548 5547 5547
5835 5831 5825 5821 5817 5809 5801 5793 5786 5777 5768 5758 5747 5736 5723 5711 5698 5685 5673 5661 5649 5638 5628 5618 5609 5601 5593 5585 5577 5571 5566 5560 5556 5552 5548 5545 5543 5541 5539 5538 5538 5537 5537 5538
5829 5826 5821 5816 5810 5803 5795 5786 5778 5769 5759 5748 5736 5724 5711 5698 5685 5672 5660 5648 5637 5627 5617 5607 5598 5589 5580 5572 5565 5558 5552 5547 5543 5539 5535 5532 5530 5529 5528 5527 5527 5527 5527 5528
5827 5821 5816 5810 5803 5797 5789 5780 5770 5761 5750 5738 5726 5714 5700 5686 5673 5660 5648 5637 5626 5616 5606 5596 5586 5577 5568 5560 5552 5545 5539 5534 5530 5526 5522 5520 5517 5516 5516 5516 5516 5517 5518 5519
5821 5816 5810 5804 5797 5789 5781 5772 5762 5751 5740 5729 5716 5704 5690 5675 5662 5650 5638 5627 5616 5606 5596 5585 5575 5566 5557 5549 5541 5534 5528 5522 5517 5513 5510 5508 5506 5505 5505 5505 5506 5507 5508 5510